This demonstration page uses our WeatherBlox Daily Observations layout. Learn more.

Left ArrowRight Arrow

Hourly Observations for May 27, 2018

Temp ( °F °C ) Dew Point ( °F °C ) Humidity (%) Winds ( mph kmh ) Pressure ( in mb ) Visibility ( mi km ) Precip ( " mm )
12:15 am 00:15 Clear 73 23 58 14.5 59 59 S 8 13 29.71 1006 10 16 N/A
12:35 am 00:35 Clear 72 22.2 58 14.5 62 62 S 7 11 29.71 1006 10 16 N/A
12:55 am 00:55 Clear 71 21.6 58 14.5 64 64 S 6 9 29.71 1006 10 16 N/A
1:15 am 01:15 Clear 70 21 58 14.3 66 66 S 7 11 29.74 1007 10 16 N/A
1:35 am 01:35 Clear 69 20.6 58 14.2 67 67 S 6 9 29.74 1007 10 16 N/A
1:55 am 01:55 Clear 68 20.2 57 14 68 68 S 7 11 29.74 1007 10 16 N/A
2:15 am 02:15 Clear 68 20.1 57 14 68 68 S 6 9 29.74 1007 10 16 N/A
2:35 am 02:35 Clear 70 21.1 57 14 64 64 S 8 13 29.74 1007 10 16 N/A
2:55 am 02:55 Clear 71 21.8 57 14 61 61 S 12 19 29.71 1006 10 16 N/A
3:15 am 03:15 Clear 72 22 57 14 61 61 S 12 19 29.71 1006 10 16 N/A
3:35 am 03:35 Clear 72 22.1 57 14.1 61 61 S 12 19 29.71 1006 10 16 N/A
3:55 am 03:55 Clear 72 22 58 14.2 61 61 SSW 13 20 29.71 1006 10 16 N/A
4:15 am 04:15 Clear 71 21.5 58 14.4 64 64 SSW 12 19 29.77 1008 10 16 N/A
4:35 am 04:35 Clear 70 21.2 58 14.4 65 65 SSW 10 17 29.77 1008 10 16 N/A
4:55 am 04:55 Clear 69 20.8 58 14.5 67 67 SSW 9 15 29.77 1008 10 16 N/A
5:15 am 05:15 Clear 69 20.6 58 14.6 69 69 SSW 10 17 29.77 1008 10 16 N/A
5:35 am 05:35 Clear 69 20.5 58 14.6 69 69 SSW 9 15 29.77 1008 10 16 N/A
5:55 am 05:55 Clear 68 20.2 58 14.7 71 71 SSW 9 15 29.77 1008 10 16 N/A
6:15 am 06:15 Sunny 68 20.2 59 14.8 71 71 SSW 9 15 29.77 1008 10 16 N/A
6:35 am 06:35 Sunny 68 20 59 15 73 73 S 8 13 29.77 1008 10 16 N/A
6:55 am 06:55 Sunny 68 20 60 15.3 74 74 S 8 13 29.80 1009 10 16 N/A
7:15 am 07:15 Sunny 69 20.6 60 15.8 74 74 SSW 10 17 29.80 1009 10 16 N/A
7:35 am 07:35 Sunny 71 21.4 62 16.6 74 74 SSW 13 20 29.80 1009 10 16 N/A
7:55 am 07:55 Sunny 72 22.4 63 17.3 73 73 S 13 20 29.77 1008 10 16 N/A
8:15 am 08:15 Sunny 74 23.1 64 18 73 73 SSW 14 22 29.77 1008 10 16 N/A
8:35 am 08:35 Sunny 76 24.2 65 18.5 71 71 SSW 18 30 29.77 1008 10 16 N/A
8:55 am 08:55 Sunny 76 24.3 65 18.6 71 71 SSW 13 20 29.77 1008 10 16 N/A
9:15 am 09:15 Sunny 77 24.8 65 18.6 69 69 SSW 17 28 29.77 1008 10 16 N/A
9:35 am 09:35 Sunny 78 25.8 66 19 66 66 SSW 16 26 29.74 1007 10 16 N/A
9:55 am 09:55 Sunny 80 26.4 66 18.9 63 63 SSW 17 28 29.74 1007 10 16 N/A
10:15 am 10:15 Sunny 80 26.7 66 18.9 62 62 SW 15 24 29.74 1007 10 16 N/A
10:35 am 10:35 Sunny 80 26.9 66 18.7 61 61 SSW 17 28 29.74 1007 10 16 N/A
10:55 am 10:55 Sunny 84 29.1 63 17.4 49 49 SSW 16 26 29.74 1007 10 16 N/A
11:15 am 11:15 Sunny 86 29.9 62 16.9 46 46 S 16 26 29.71 1006 10 16 N/A
11:35 am 11:35 Sunny 87 30.6 58 14.4 37 37 SSW 21 33 29.71 1006 10 16 N/A
11:55 am 11:55 Sunny 88 31.1 59 15 38 38 SSW 20 31 29.71 1006 10 16 N/A
12:15 pm 12:15 Sunny 88 31.1 58 14.4 36 36 S 15 24 29.71 1006 10 16 N/A
12:35 pm 12:35 Sunny 89 31.8 59 15.1 36 36 S 17 28 29.71 1006 10 16 N/A
12:55 pm 12:55 Sunny 90 32.4 58 14.6 34 34 S 21 33 29.71 1006 10 16 N/A
1:15 pm 13:15 Sunny 91 32.6 57 13.9 32 32 S 22 35 29.71 1006 10 16 N/A
1:35 pm 13:35 Sunny 90 32.3 57 14.1 33 33 S 22 35 29.71 1006 10 16 N/A
1:55 pm 13:55 Sunny 91 32.6 58 14.4 33 33 S 22 35 29.71 1006 10 16 N/A
2:15 pm 14:15 Sunny 90 32.3 58 14.4 34 34 S 17 28 29.71 1006 10 16 N/A
2:35 pm 14:35 Sunny 90 32.2 58 14.2 34 34 SSE 25 41 29.68 1005 10 16 N/A
2:55 pm 14:55 Sunny 89 31.9 57 13.9 33 33 S 21 33 29.68 1005 10 16 N/A
3:15 pm 15:15 Sunny 92 33.1 56 13.1 30 30 SSE 22 35 29.65 1004 10 16 N/A
3:35 pm 15:35 Sunny 92 33.1 56 13.2 30 30 S 20 31 29.65 1004 10 16 N/A
3:55 pm 15:55 Sunny 92 33.5 53 11.7 26 26 SSE 23 37 29.62 1003 10 16 N/A
4:15 pm 16:15 Sunny 92 33.5 53 11.9 27 27 S 22 35 29.62 1003 10 16 N/A
4:35 pm 16:35 Sunny 92 33.3 55 12.6 28 28 S 20 31 29.62 1003 10 16 N/A
4:55 pm 16:55 Sunny 92 33.3 56 13.2 29 29 SSE 25 41 29.62 1003 10 16 N/A
5:15 pm 17:15 Sunny 91 32.7 55 12.9 30 30 SSE 21 33 29.62 1003 10 16 N/A
5:35 pm 17:35 Sunny 91 33 54 12.4 28 28 SSE 22 35 29.62 1003 10 16 N/A
5:55 pm 17:55 Sunny 91 32.7 56 13.4 31 31 SSE 24 39 29.59 1002 10 16 N/A
6:15 pm 18:15 Sunny 90 32.3 56 13.1 31 31 SSE 22 35 29.59 1002 10 16 N/A
6:35 pm 18:35 Sunny 89 31.9 54 12.4 30 30 SSE 22 35 29.62 1003 10 16 N/A
6:55 pm 18:55 Sunny 88 31.1 51 10.4 28 28 SSE 22 35 29.62 1003 10 16 N/A
7:15 pm 19:15 Sunny 87 30.7 50 10.2 28 28 SSE 17 28 29.65 1004 10 16 N/A
7:56 pm 19:56 Sunny 84 29 54 12 35 35 SSE 18 30 29.65 1004 10 16 N/A
8:15 pm 20:15 Sunny 84 28.9 55 12.5 36 36 SSE 16 26 29.65 1004 10 16 N/A
8:35 pm 20:35 Sunny 83 28.3 55 12.6 38 38 SSE 15 24 29.68 1005 10 16 N/A
8:55 pm 20:55 Sunny 81 27.3 55 12.6 40 40 SSE 10 17 29.71 1006 10 16 N/A
9:15 pm 21:15 Clear 80 26.7 55 12.5 41 41 SSE 10 17 29.71 1006 10 16 N/A
9:35 pm 21:35 Clear 79 26.2 54 12.2 42 42 SSE 12 19 29.71 1006 10 16 N/A
9:50 pm 21:50 Clear 79 26 54 12.2 42 42 SSE 10 17 29.74 1007 10 16 N/A
10:15 pm 22:15 Clear 78 25.3 55 12.7 46 46 SE 8 13 29.80 1009 10 16 N/A
10:35 pm 22:35 Clear 77 24.8 56 13.2 49 49 SE 10 17 29.80 1009 10 16 N/A
10:55 pm 22:55 Clear 77 25.1 56 13.6 49 49 SE 12 19 29.80 1009 10 16 N/A
11:15 pm 23:15 Clear 77 25 57 13.7 50 50 SE 13 20 29.80 1009 10 16 N/A
11:35 pm 23:35 Clear 76 24.7 57 14 51 51 SE 12 19 29.80 1009 10 16 N/A
11:55 pm 23:55 Clear 76 24.5 57 14 52 52 SE 12 19 29.80 1009 10 16 N/A

Powered by AerisWeather